Tracking 32941 objects as of 16-Jan-2026
HD Live streaming from Space Station
objects crossing your sky now

CZ-2D DEB

Track CZ-2D DEB now!
10-day predictions


NORAD ID: 47975
Int'l Code: 2019-063E
Perigee: 771.8 km
Apogee: 781.2 km
Inclination: 98.5 °
Period: 100.2 minutes
Semi major axis: 7147 km
RCS: Unknown
Launch date: September 25, 2019
Source: People's Republic of China (PRC)
Launch site: Jiuquan Satellite Launch Center, China (JSC)

Note: This is SATELLITE DEBRIS
Your satellite tracking list
Your tracking list is empty




NASA's NSSDC Master Catalog

Two Line Element Set (TLE):
1 47975U 19063E   26014.95704749  .00000312  00000-0  12057-3 0  9993
2 47975  98.4845  76.1810 0006544 239.9399 120.1138 14.36723110264385
Source of the keplerian elements: AFSPC